Weather History for KCGS - August, 2014

Change the Weather History Date:

Wednesday, August 27, 2014

  Actual Average Record
Temperature  
Mean Temperature 74 °F -  
Max Temperature 89 °F 87 °F 99 °F (1948)
Min Temperature 60 °F 65 °F 52 °F (1963)
Cooling Degree Days 10    
Growing Degree Days 24 (Base 50)    
Moisture  
Dew Point 64 °F    
Average Humidity 71    
Maximum Humidity 100    
Minimum Humidity 33    
Precipitation  
Precipitation 0.00 in - - ()
Sea Level Pressure  
Sea Level Pressure 30.01 in    
Wind  
Wind Speed 0 mph (WNW)    
Max Wind Speed 6 mph    
Max Gust Speed -    
Visibility 9 miles    
Events      
Averages and records for this station are not official NWS values.
T = Trace of Precipitation, MM = Missing Value Source: NWS Daily Summary

Daily Weather History Graph

Daily Weather History Graph

Search for Another Location

Airport or City:

Trip Planner

Search our weather history database for the weather conditions in past years. The results will help you decide how hot, cold, wet, or windy it might be!

Date:

Astronomy

Aug. 27, 2014 Rise Set
Actual Time 6:32 AM EDT 7:45 PM EDT
Civil Twilight 6:04 AM EDT 8:13 PM EDT
Nautical Twilight 5:31 AM EDT 8:46 PM EDT
Astronomical Twilight 4:56 AM EDT 9:20 PM EDT
Moon 8:24 AM EDT (8/27) 8:38 PM EDT (8/27)
Length of Visible Light 14h 08m
Length of Day
13h 13m
Waxing Crescent, 4% of the Moon is Illuminated
Aug 27
Waxing Crescent
Sep 2
First Quarter
Sep 8
Full
Sep 15
Last Quarter
Sep 24
New

Hourly Weather History & Observations

Time (EDT) Temp. Heat Index Dew Point Humidity Pressure Visibility Wind Dir Wind Speed Gust Speed Precip Events Conditions
12:10 AM 66.2 °F - 64.4 °F 94% 30.09 in 10.0 mi Calm Calm - N/A   Clear
12:30 AM 64.4 °F - 64.4 °F 100% 30.08 in 10.0 mi Calm Calm - N/A   Clear
1:10 AM 64.4 °F - 64.4 °F 100% 30.08 in 7.0 mi Calm Calm - N/A   Clear
1:30 AM 64.4 °F - 64.4 °F 100% 30.07 in 10.0 mi Calm Calm - N/A   Clear
1:50 AM 64.4 °F - 64.4 °F 100% 30.07 in 10.0 mi Calm Calm - N/A   Clear
2:10 AM 64.4 °F - 64.4 °F 100% 30.06 in 10.0 mi Calm Calm - N/A   Clear
2:30 AM 64.4 °F - 64.4 °F 100% 30.06 in 7.0 mi Calm Calm - N/A   Clear
2:50 AM 64.4 °F - 62.6 °F 94% 30.05 in 10.0 mi Calm Calm - N/A   Clear
3:10 AM 64.4 °F - 62.6 °F 94% 30.05 in 10.0 mi Calm Calm - N/A   Clear
3:30 AM 64.4 °F - 62.6 °F 94% 30.05 in 7.0 mi Calm Calm - N/A   Clear
3:50 AM 62.6 °F - 62.6 °F 100% 30.04 in 7.0 mi Calm Calm - N/A   Clear
4:10 AM 62.6 °F - 62.6 °F 100% 30.05 in 7.0 mi Calm Calm - N/A   Clear
4:30 AM 62.6 °F - 62.6 °F 100% 30.05 in 7.0 mi Calm Calm - N/A   Clear
4:50 AM 62.6 °F - 62.6 °F 100% 30.05 in 7.0 mi Calm Calm - N/A   Clear
5:10 AM 62.6 °F - 62.6 °F 100% 30.05 in 7.0 mi Calm Calm - N/A   Clear
5:30 AM 62.6 °F - 62.6 °F 100% 30.05 in 7.0 mi Calm Calm - N/A   Clear
5:50 AM 62.6 °F - 62.6 °F 100% 30.05 in 3.0 mi Calm Calm - N/A   Clear
6:10 AM 62.6 °F - 62.6 °F 100% 30.06 in 7.0 mi Calm Calm - N/A   Clear
6:30 AM 60.8 °F - 60.8 °F 100% 30.07 in 5.0 mi Calm Calm - N/A   Clear
6:50 AM 62.6 °F - 62.6 °F 100% 30.08 in 10.0 mi Calm Calm - N/A   Clear
7:10 AM 62.6 °F - 62.6 °F 100% 30.08 in 10.0 mi Calm Calm - N/A   Clear
7:30 AM 62.6 °F - 62.6 °F 100% 30.08 in 7.0 mi Calm Calm - N/A   Clear
7:50 AM 64.4 °F - 64.4 °F 100% 30.08 in 10.0 mi Calm Calm - N/A   Clear
8:10 AM 66.2 °F - 66.2 °F 100% 30.08 in 10.0 mi Calm Calm - N/A   Clear
8:30 AM 69.8 °F - 66.2 °F 88% 30.09 in 10.0 mi Calm Calm - N/A   Clear
8:50 AM 71.6 °F - 66.2 °F 83% 30.09 in 10.0 mi Calm Calm - N/A   Clear
9:10 AM 73.4 °F - 64.4 °F 73% 30.08 in 10.0 mi Calm Calm - N/A   Clear
9:30 AM 75.2 °F - 62.6 °F 65% 30.08 in 10.0 mi Calm Calm - N/A   Clear
9:50 AM 77.0 °F - 64.4 °F 65% 30.08 in 10.0 mi Calm Calm - N/A   Clear
10:10 AM 78.8 °F - 62.6 °F 57% 30.07 in 10.0 mi Calm Calm - N/A   Clear
10:30 AM 80.6 °F 82.3 °F 64.4 °F 58% 30.07 in 10.0 mi Calm Calm - N/A   Clear
10:50 AM 80.6 °F 81.8 °F 62.6 °F 54% 30.07 in 10.0 mi Calm Calm - N/A   Clear
11:10 AM 82.4 °F 82.9 °F 60.8 °F 48% 30.07 in 10.0 mi Calm Calm - N/A   Clear
11:30 AM 82.4 °F 82.9 °F 60.8 °F 48% 30.06 in 10.0 mi SW 3.5 mph - N/A   Clear
11:50 AM 84.2 °F 85.0 °F 62.6 °F 48% 30.05 in 10.0 mi Calm Calm - N/A   Clear
12:10 PM 84.2 °F 84.4 °F 60.8 °F 45% 30.04 in 10.0 mi Calm Calm - N/A   Clear
12:30 PM 86.0 °F 85.4 °F 59.0 °F 40% 30.04 in 10.0 mi Calm Calm - N/A   Clear
12:50 PM 86.0 °F 84.9 °F 57.2 °F 37% 30.03 in 10.0 mi NW 3.5 mph - N/A   Clear
1:10 PM 86.0 °F 84.5 °F 55.4 °F 35% 30.02 in 10.0 mi Calm Calm - N/A   Clear
1:30 PM 87.8 °F 86.1 °F 55.4 °F 33% 30.01 in 10.0 mi NW 4.6 mph - N/A   Clear
1:50 PM 87.8 °F 86.1 °F 55.4 °F 33% 29.99 in 10.0 mi Calm Calm - N/A   Clear
2:10 PM 87.8 °F 87.1 °F 59.0 °F 38% 29.99 in 10.0 mi NNW 5.8 mph - N/A   Clear
2:30 PM 87.8 °F 87.1 °F 59.0 °F 38% 29.98 in 10.0 mi Calm Calm - N/A   Clear
3:10 PM 87.8 °F 87.1 °F 59.0 °F 38% 29.96 in 10.0 mi WNW 3.5 mph - N/A   Clear
3:30 PM 87.8 °F 87.6 °F 60.8 °F 40% 29.96 in 10.0 mi Calm Calm - N/A   Clear
3:50 PM 89.6 °F 90.1 °F 62.6 °F 40% 29.95 in 10.0 mi NNE 3.5 mph - N/A   Clear
4:10 PM 87.8 °F 88.5 °F 62.6 °F 43% 29.94 in 10.0 mi Calm Calm - N/A   Clear
4:30 PM 89.6 °F 89.5 °F 60.8 °F 38% 29.94 in 10.0 mi Calm Calm - N/A   Clear
4:50 PM 89.6 °F 90.1 °F 62.6 °F 40% 29.94 in 10.0 mi NW 4.6 mph - N/A   Clear
5:10 PM 89.6 °F 90.1 °F 62.6 °F 40% 29.94 in 10.0 mi WSW 3.5 mph - N/A   Clear
5:30 PM 89.6 °F 90.1 °F 62.6 °F 40% 29.93 in 10.0 mi West 3.5 mph - N/A   Clear
5:50 PM 89.6 °F 90.1 °F 62.6 °F 40% 29.93 in 10.0 mi WSW 3.5 mph - N/A   Clear
6:10 PM 87.8 °F 88.5 °F 62.6 °F 43% 29.93 in 10.0 mi SW 3.5 mph - N/A   Clear
6:30 PM 87.8 °F 88.5 °F 62.6 °F 43% 29.92 in 10.0 mi Calm Calm - N/A   Clear
6:50 PM 87.8 °F 88.5 °F 62.6 °F 43% 29.92 in 10.0 mi Calm Calm - N/A   Clear
7:10 PM 87.8 °F 89.4 °F 64.4 °F 46% 29.91 in 10.0 mi Calm Calm - N/A   Clear
7:30 PM 86.0 °F 87.3 °F 64.4 °F 48% 29.91 in 10.0 mi Calm Calm - N/A   Clear
7:50 PM 86.0 °F 87.3 °F 64.4 °F 48% 29.91 in 10.0 mi Calm Calm - N/A   Clear
8:10 PM 78.8 °F - 69.8 °F 74% 29.91 in 10.0 mi Calm Calm - N/A   Clear
8:30 PM 78.8 °F - 68.0 °F 69% 29.91 in 10.0 mi Calm Calm - N/A   Clear
8:50 PM 77.0 °F - 69.8 °F 78% 29.92 in 10.0 mi Calm Calm - N/A   Clear
9:10 PM 78.8 °F - 69.8 °F 74% 29.92 in 10.0 mi Calm Calm - N/A   Clear
9:30 PM 77.0 °F - 69.8 °F 78% 29.92 in 10.0 mi Calm Calm - N/A   Clear
9:50 PM 75.2 °F - 69.8 °F 83% 29.92 in 10.0 mi Calm Calm - N/A   Clear
10:10 PM 75.2 °F - 69.8 °F 83% 29.91 in 10.0 mi Calm Calm - N/A   Clear
10:30 PM 73.4 °F - 69.8 °F 88% 29.92 in 10.0 mi Calm Calm - N/A   Clear
10:50 PM 75.2 °F - 69.8 °F 83% 29.91 in 10.0 mi Calm Calm - N/A   Clear
11:10 PM 73.4 °F - 69.8 °F 88% 29.91 in 10.0 mi Calm Calm - N/A   Clear
11:30 PM 73.4 °F - 69.8 °F 88% 29.91 in 10.0 mi Calm Calm - N/A   Clear
11:50 PM 73.4 °F - 69.8 °F 88% 29.91 in 10.0 mi Calm Calm - N/A   Clear